ICARMODO3 Weather Reports


time (UTC)temp
C
wind
direction
speed
KPH
gust
KPH
rain 1hr
cm
rain 24hr
cm
rain mn
cm
humidity
%
barometer
mb
20260504204535 23 101 0.0 1.6 0.00 0.00 0.00 68 1011.2
20260504203045 24 104 0.0 3.2 0.00 0.00 0.00 67 1011.1
20260504201532 25 83 1.6 9.7 0.00 0.00 0.00 65 1011.0
20260504200032 25 80 1.6 8.0 0.00 0.00 0.00 63 1010.8
20260504194539 26 64 4.8 12.9 0.00 0.00 0.00 61 1010.8
20260504193032 26 63 1.6 8.0 0.00 0.00 0.00 61 1010.7
20260504191536 26 55 4.8 12.9 0.00 0.00 0.00 59 1010.7
20260504190028 26 58 4.8 12.9 0.00 0.00 0.00 56 1010.6
20260504184529 27 59 4.8 12.9 0.00 0.00 0.00 51 1010.5
20260504183026 27 44 0.0 17.7 0.00 0.00 0.00 53 1010.4
20260504181523 27 32 6.4 16.1 0.00 0.00 0.00 55 1010.3
20260504180022 26 61 6.4 14.5 0.00 0.00 0.00 59 1010.3
20260504174521 27 55 3.2 11.3 0.00 0.00 0.00 56 1010.6
20260504173021 27 75 9.7 17.7 0.00 0.00 0.00 53 1010.7
20260504171519 27 45 4.8 16.1 0.00 0.00 0.00 57 1010.7
20260504081509 17 155 0.0 8.0 0.00 0.00 0.00 93 1010.8
20260504044549 16 197 0.0 6.4 0.00 0.00 0.00 92 1010.4
20260504043020 16 203 0.0 1.6 0.00 0.00 0.00 92 1010.4
20260504041519 16 194 0.0 1.6 0.00 0.00 0.00 92 1010.4
20260504040034 16 187 0.0 3.2 0.00 0.00 0.00 92 1010.5
20260504034512 16 166 1.6 6.4 0.00 0.00 0.00 92 1010.6
20260504033011 16 184 0.0 3.2 0.00 0.00 0.00 92 1010.5
20260504031510 16 166 0.0 3.2 0.00 0.00 0.00 92 1010.4
20260504030009 16 169 0.0 1.6 0.00 0.00 0.00 92 1010.5
20260504024505 16 163 0.0 6.4 0.00 0.00 0.00 92 1010.3
20260504023006 16 163 0.0 8.0 0.00 0.00 0.00 92 1010.4
20260504021504 16 151 0.0 1.6 0.00 0.00 0.00 91 1010.5
20260504020004 16 192 0.0 0.0 0.00 0.00 0.00 90 1010.5
20260504014507 17 192 0.0 3.2 0.00 0.00 0.00 90 1010.6
20260504013002 17 172 0.0 3.2 0.00 0.00 0.00 90 1010.6
20260504011501 17 146 0.0 0.0 0.00 0.00 0.00 89 1010.5
20260504010058 17 132 0.0 1.6 0.00 0.00 0.00 88 1010.6
20260504004558 17 123 0.0 0.0 0.00 0.00 0.00 86 1010.6
20260504003105 18 123 0.0 0.0 0.00 0.00 0.00 86 1010.5
20260504001607 18 123 0.0 0.0 0.00 0.00 0.00 85 1010.5
20260504000105 18 123 0.0 0.0 0.00 0.00 0.00 84 1010.6
20260503234547 19 123 0.0 0.0 0.00 0.00 0.00 82 1010.5
20260503233047 19 123 0.0 0.0 0.00 0.00 0.00 80 1010.5
20260503231548 19 123 0.0 0.0 0.00 0.00 0.00 80 1010.5
20260503230046 20 123 0.0 0.0 0.00 0.00 0.00 79 1010.3
20260503224547 20 123 0.0 0.0 0.00 0.00 0.00 78 1010.3
20260503223046 21 123 0.0 1.6 0.00 0.00 0.00 76 1010.0
20260503221552 21 110 0.0 1.6 0.00 0.00 0.00 74 1009.9
20260503220045 21 111 0.0 3.2 0.00 0.00 0.00 73 1009.7
20260503214544 22 101 1.6 8.0 0.00 0.00 0.00 71 1009.6
20260503213046 22 88 3.2 8.0 0.00 0.00 0.00 70 1009.3
20260503211544 22 84 0.0 3.2 0.00 0.00 0.00 70 1009.3
20260503210052 23 81 0.0 6.4 0.00 0.00 0.00 67 1009.2